Weather History for Tucson Davis Monthan, AZ

Change the Weather History Date:

Monday, November 11, 2013

  Actual Average Record
Temperature  
Mean Temperature 69 °F -  
Max Temperature 85 °F 75 °F 91 °F (1999)
Min Temperature 53 °F 47 °F 35 °F (1948)
Cooling Degree Days 4    
Growing Degree Days 19 (Base 50)    
Moisture  
Dew Point 35 °F    
Average Humidity 30    
Maximum Humidity 43    
Minimum Humidity 17    
Precipitation  
Precipitation 0.00 in - - ()
Sea Level Pressure  
Sea Level Pressure 29.99 in    
Wind  
Wind Speed 6 mph (SE)    
Max Wind Speed 13 mph    
Max Gust Speed -    
Visibility 10 miles    
Events      
Averages and records for this station are not official NWS values.
T = Trace of Precipitation, MM = Missing Value Source: NWS Daily Summary

Daily Weather History Graph

Daily Weather History Graph

Search for Another Location

Airport:

Trip Planner

Search our weather history database for the weather conditions in past years. The results will help you decide how hot, cold, wet, or windy it might be!

Date:

Astronomy

Nov. 11, 2013 Rise Set
Actual Time 6:49 AM MST 5:25 PM MST
Civil Twilight 6:23 AM MST 5:51 PM MST
Nautical Twilight 5:54 AM MST 6:20 PM MST
Astronomical Twilight 5:25 AM MST 6:49 PM MST
Moon 1:49 PM MST (11/11) 12:58 AM MST (11/11)
Length of Visible Light 11h 27m
Length of Day
10h 36m
Waxing Gibbous, 67% of the Moon is Illuminated
Nov 11
Waxing Gibbous
Nov 17
Full
Nov 25
Last Quarter
Dec 2
New
Dec 9
First Quarter

Hourly Weather History & Observations

Time (MST) Temp. Dew Point Humidity Pressure Visibility Wind Dir Wind Speed Gust Speed Precip Events Conditions
12:58 AM 56.7 °F 32.2 °F 40% 30.00 in 10.0 mi SE 6.9 mph - N/A   Clear
1:58 AM 56.8 °F 32.0 °F 39% 29.99 in 10.0 mi SSE 5.8 mph - N/A   Clear
2:58 AM 55.9 °F 32.2 °F 41% 29.99 in 10.0 mi SE 6.9 mph - N/A   Clear
3:58 AM 54.9 °F 31.8 °F 42% 29.98 in 10.0 mi SSE 8.1 mph - N/A   Clear
4:58 AM 53.8 °F 31.5 °F 43% 30.00 in 10.0 mi South 4.6 mph - N/A   Clear
5:58 AM 54.7 °F 32.2 °F 42% 30.01 in 10.0 mi South 4.6 mph - N/A   Clear
6:58 AM 56.5 °F 33.1 °F 41% 30.02 in 10.0 mi SSE 8.1 mph - N/A   Clear
7:58 AM 58.5 °F 34.0 °F 40% 30.04 in 10.0 mi West 1.2 mph - N/A   Clear
8:58 AM 70.7 °F 36.5 °F 29% 30.03 in 10.0 mi SSE 9.2 mph - N/A   Clear
9:58 AM 75.9 °F 37.2 °F 25% 30.03 in 10.0 mi NW 1.2 mph - N/A   Clear
10:58 AM 79.5 °F 38.1 °F 23% 30.02 in 10.0 mi Variable 1.2 mph - N/A   Clear
11:58 AM 82.4 °F 37.9 °F 20% 29.99 in 10.0 mi NNE 2.3 mph - N/A   Clear
12:58 PM 84.7 °F 37.6 °F 19% 29.95 in 10.0 mi North 3.5 mph - N/A   Clear
1:58 PM 85.5 °F 36.0 °F 17% 29.92 in 10.0 mi Variable 5.8 mph - N/A   Clear
2:58 PM 85.6 °F 36.5 °F 17% 29.91 in 10.0 mi NNE 2.3 mph - N/A   Clear
3:58 PM 85.1 °F 36.1 °F 17% 29.91 in 10.0 mi North 12.7 mph - N/A   Clear
4:58 PM 82.2 °F 36.7 °F 20% 29.93 in 10.0 mi NNW 12.7 mph - N/A   Clear
5:58 PM 77.7 °F 36.5 °F 23% 29.96 in 10.0 mi NNW 8.1 mph - N/A   Clear
6:59 PM 75.0 °F 37.2 °F 25% 29.99 in 10.0 mi North 8.1 mph - N/A   Clear
7:58 PM 72.3 °F 36.9 °F 27% 30.00 in 10.0 mi North 4.6 mph - N/A   Clear
8:58 PM 67.6 °F 35.6 °F 31% 30.01 in 10.0 mi SW 2.3 mph - N/A   Clear
9:58 PM 63.0 °F 35.2 °F 36% 30.02 in 10.0 mi South 6.9 mph - N/A   Clear
10:58 PM 61.5 °F 34.2 °F 36% 30.03 in 10.0 mi South 5.8 mph - N/A   Clear
11:58 PM 62.1 °F 33.3 °F 34% 30.02 in 10.0 mi SE 6.9 mph - N/A   Clear